Change the Weather History Date:

Friday, March 15, 2013

  Actual Average Record
Temperature  
Mean Temperature 48 °F -  
Max Temperature 69 °F 58 °F 80 °F (1944)
Min Temperature 28 °F 35 °F 21 °F (1932)
Degree Days  
Heating Degree Days 16    
Moisture  
Dew Point 34 °F    
Average Humidity 56    
Maximum Humidity 70    
Minimum Humidity 40    
Precipitation  
Precipitation 0.00 in - - ()
Sea Level Pressure  
Sea Level Pressure 29.94 in    
Wind  
Wind Speed 5 mph (SSW)    
Max Wind Speed 18 mph    
Max Gust Speed 23 mph    
Visibility 10 miles    
Events      
Averages and records for this station are not official NWS values.
T = Trace of Precipitation, MM = Missing Value Source: NWS Daily Summary

Daily Weather History Graph

Daily Weather History Graph

Search for Another Location

Airport or City:

Trip Planner

Search our weather history database for the weather conditions in past years. The results will help you decide how hot, cold, wet, or windy it might be!

Date:

Astronomy

Mar. 15, 2013 Rise Set
Actual Time 7:01 AM CDT 6:58 PM CDT
Civil Twilight 6:35 AM CDT 7:24 PM CDT
Nautical Twilight 6:04 AM CDT 7:54 PM CDT
Astronomical Twilight 5:34 AM CDT 8:25 PM CDT
Moon 8:56 AM CDT (3/15) 11:06 PM CDT (3/15)
Length of Visible Light 12h 49m
Length of Day
11h 56m
Waxing Crescent, 15% of the Moon is Illuminated
Mar 15
Waxing Crescent
Mar 19
First Quarter
Mar 27
Full
Apr 2
Last Quarter
Apr 10
New

Hourly Weather History & Observations

Time (CDT) Temp. Windchill Dew Point Humidity Pressure Visibility Wind Dir Wind Speed Gust Speed Precip Events Conditions
12:15 AM 33.8 °F 28.6 °F 24.8 °F 70% 30.16 in 10.0 mi SSE 5.8 mph - N/A   Clear
12:35 AM 33.8 °F 29.6 °F 24.8 °F 70% 30.16 in 10.0 mi SSE 4.6 mph - N/A   Clear
12:55 AM 33.8 °F 29.6 °F 24.8 °F 70% 30.15 in 10.0 mi SE 4.6 mph - N/A   Clear
1:15 AM 33.8 °F 29.6 °F 23.0 °F 65% 30.14 in 10.0 mi SE 4.6 mph - N/A   Clear
1:35 AM 33.8 °F 28.6 °F 23.0 °F 65% 30.13 in 10.0 mi SE 5.8 mph - N/A   Clear
2:15 AM 33.8 °F 28.6 °F 21.2 °F 60% 30.11 in 10.0 mi SSE 5.8 mph - N/A   Clear
2:35 AM 32.0 °F 26.4 °F 21.2 °F 64% 30.10 in 10.0 mi SSE 5.8 mph - N/A   Clear
2:55 AM 32.0 °F 26.4 °F 21.2 °F 64% 30.09 in 10.0 mi SSE 5.8 mph - N/A   Clear
3:15 AM 32.0 °F 27.5 °F 21.2 °F 64% 30.08 in 10.0 mi SSE 4.6 mph - N/A   Clear
3:36 AM 32.0 °F - 21.2 °F 64% 30.07 in 10.0 mi Calm Calm - N/A   Clear
3:55 AM 30.2 °F - 21.2 °F 69% 30.06 in 10.0 mi Calm Calm - N/A   Clear
4:15 AM 30.2 °F - 19.4 °F 64% 30.06 in 10.0 mi Calm Calm - N/A   Clear
4:55 AM 30.2 °F 26.7 °F 21.2 °F 69% 30.03 in 10.0 mi SSE 3.5 mph - N/A   Clear
5:15 AM 30.2 °F 25.4 °F 21.2 °F 69% 30.02 in 10.0 mi South 4.6 mph - N/A   Clear
5:36 AM 30.2 °F 26.7 °F 19.4 °F 64% 30.02 in 10.0 mi SSE 3.5 mph - N/A   Clear
5:55 AM 30.2 °F 26.7 °F 19.4 °F 64% 30.02 in 10.0 mi South 3.5 mph - N/A   Clear
6:15 AM 30.2 °F 26.7 °F 21.2 °F 69% 30.02 in 10.0 mi South 3.5 mph - N/A   Clear
6:35 AM 30.2 °F - 19.4 °F 64% 30.02 in 10.0 mi Calm Calm - N/A   Clear
6:55 AM 28.4 °F - 19.4 °F 69% 30.02 in 10.0 mi Calm Calm - N/A   Clear
7:15 AM 28.4 °F - 19.4 °F 69% 30.03 in 10.0 mi Calm Calm - N/A   Clear
7:55 AM 30.2 °F - 21.2 °F 69% 30.03 in 10.0 mi Calm Calm - N/A   Clear
8:15 AM 32.0 °F - 21.2 °F 64% 30.03 in 10.0 mi Calm Calm - N/A   Clear
8:35 AM 35.6 °F - 24.8 °F 65% 30.02 in 10.0 mi Calm Calm - N/A   Clear
8:55 AM 37.4 °F - 28.4 °F 70% 30.02 in 10.0 mi Calm Calm - N/A   Clear
9:15 AM 41.0 °F - 28.4 °F 61% 30.02 in 10.0 mi Calm Calm - N/A   Clear
9:35 AM 44.6 °F 40.7 °F 30.2 °F 57% 30.01 in 10.0 mi SW 6.9 mph - N/A   Clear
9:55 AM 46.4 °F 42.9 °F 30.2 °F 53% 30.00 in 10.0 mi SW 6.9 mph - N/A   Clear
10:15 AM 48.2 °F - 33.8 °F 58% 30.00 in 10.0 mi SW 4.6 mph - N/A   Clear
10:35 AM 50.0 °F - 33.8 °F 54% 29.99 in 10.0 mi SW 6.9 mph - N/A   Clear
10:55 AM 51.8 °F - 35.6 °F 54% 29.99 in 10.0 mi SW 4.6 mph - N/A   Clear
11:15 AM 53.6 °F - 35.6 °F 51% 29.99 in 10.0 mi West 5.8 mph - N/A   Clear
11:35 AM 55.4 °F - 37.4 °F 51% 29.98 in 10.0 mi SW 6.9 mph - N/A   Clear
11:55 AM 55.4 °F - 37.4 °F 51% 29.98 in 10.0 mi Calm Calm - N/A   Clear
12:15 PM 55.4 °F - 37.4 °F 51% 29.97 in 10.0 mi Calm Calm - N/A   Clear
12:35 PM 57.2 °F - 39.2 °F 51% 29.97 in 10.0 mi Calm Calm - N/A   Clear
12:55 PM 60.8 °F - 39.2 °F 45% 29.96 in 10.0 mi South 3.5 mph - N/A   Clear
1:15 PM 62.6 °F - 39.2 °F 42% 29.95 in 10.0 mi WSW 4.6 mph - N/A   Clear
1:35 PM 62.6 °F - 39.2 °F 42% 29.94 in 10.0 mi Calm Calm - N/A   Clear
1:55 PM 64.4 °F - 42.8 °F 45% 29.93 in 10.0 mi WSW 8.1 mph - N/A   Clear
2:15 PM 64.4 °F - 42.8 °F 45% 29.92 in 10.0 mi SW 8.1 mph - N/A   Clear
2:35 PM 66.2 °F - 42.8 °F 43% 29.90 in 10.0 mi SSW 8.1 mph - N/A   Clear
2:55 PM 66.2 °F - 42.8 °F 43% 29.89 in 10.0 mi SW 6.9 mph - N/A   Clear
3:15 PM 66.2 °F - 44.6 °F 46% 29.88 in 10.0 mi South 10.4 mph - N/A   Clear
3:35 PM 69.8 °F - 44.6 °F 40% 29.87 in 10.0 mi SW 9.2 mph - N/A   Clear
3:55 PM 69.8 °F - 44.6 °F 40% 29.86 in 10.0 mi SSW 10.4 mph - N/A   Clear
4:15 PM 69.8 °F - 44.6 °F 40% 29.86 in 10.0 mi SSW 6.9 mph - N/A   Clear
4:55 PM 69.8 °F - 44.6 °F 40% 29.84 in 10.0 mi SSW 10.4 mph - N/A   Clear
5:15 PM 68.0 °F - 44.6 °F 43% 29.83 in 10.0 mi SSW 10.4 mph - N/A   Clear
5:35 PM 66.2 °F - 44.6 °F 46% 29.82 in 10.0 mi SSW 9.2 mph - N/A   Clear
5:55 PM 64.4 °F - 44.6 °F 49% 29.82 in 10.0 mi SSW 5.8 mph - N/A   Clear
6:15 PM 64.4 °F - 44.6 °F 49% 29.82 in 10.0 mi South 6.9 mph - N/A   Clear
6:35 PM 62.6 °F - 44.6 °F 52% 29.82 in 10.0 mi SSW 6.9 mph - N/A   Clear
6:55 PM 62.6 °F - 42.8 °F 48% 29.81 in 10.0 mi SSW 5.8 mph - N/A   Scattered Clouds
7:15 PM 62.6 °F - 42.8 °F 48% 29.80 in 10.0 mi South 6.9 mph - N/A   Mostly Cloudy
7:35 PM 60.8 °F - 42.8 °F 52% 29.80 in 10.0 mi SSW 6.9 mph - N/A   Overcast
7:55 PM 60.8 °F - 42.8 °F 52% 29.80 in 10.0 mi South 4.6 mph - N/A   Overcast
8:15 PM 59.0 °F - 42.8 °F 55% 29.80 in 10.0 mi South 5.8 mph - N/A   Overcast
8:35 PM 57.2 °F - 42.8 °F 59% 29.79 in 10.0 mi South 8.1 mph - N/A   Mostly Cloudy
8:56 PM 55.4 °F - 42.8 °F 63% 29.78 in 10.0 mi South 12.7 mph - N/A   Mostly Cloudy
9:15 PM 60.8 °F - 42.8 °F 52% 29.77 in 10.0 mi South 10.4 mph - N/A   Scattered Clouds
9:55 PM 62.6 °F - 44.6 °F 52% 29.76 in 10.0 mi South 13.8 mph - N/A   Clear
10:15 PM 60.8 °F - 44.6 °F 55% 29.75 in 10.0 mi South 12.7 mph - N/A   Scattered Clouds
10:35 PM 62.6 °F - 44.6 °F 52% 29.75 in 10.0 mi SSW 16.1 mph 21.9 mph N/A   Clear
10:55 PM 62.6 °F - 44.6 °F 52% 29.75 in 10.0 mi SSW 15.0 mph - N/A   Clear
11:35 PM 62.6 °F - 46.4 °F 55% 29.73 in 10.0 mi SW 18.4 mph 23.0 mph N/A   Partly Cloudy
11:55 PM 62.6 °F - 46.4 °F 55% 29.73 in 10.0 mi SW 17.3 mph - N/A   Clear